Location: Alphen
(52.1351°N, 4.6549°E)
Time: 00:59:57
(UTC+00:00)

SL-19 R/B - Pass Details

Date: 27 January 2021
Orbit: 358 x 805 km, 99.4° (Epoch: 26 February)

Event Time Altitude Azimuth Distance (km) Brightness Sun altitude
Rises 06:06:44 0° 17° (NNE) 2,787 8.0 -12.5°
Reaches altitude 10° 06:09:02 10° 19° (NNE) 1,805 7.0 -12.2°
Maximum altitude 06:12:53 76° 106° (ESE) 504 4.2 -11.6°
Drops below altitude 10° 06:16:12 10° 193° (SSW) 1,557 6.7 -11.1°
Sets 06:18:04 0° 194° (SSW) 2,363 7.6 -10.9°
